Location: De Har
(53.3413°N, 6.6858°E)
Time: 08:25:39
(UTC+00:00)

Cosmos 2322 - Pass Details

Date: 22 April 2026
Orbit: 839 x 854 km, 71.0° (Epoch: 15 May)

Event Time Altitude Azimuth Distance (km) Brightness Sun altitude
Rises 03:16:30 0° 327° (NNW) 3,435 6.9 -9.0°
Reaches altitude 10° 03:18:58 10° 325° (NW) 2,494 6.2 -8.7°
Maximum altitude 03:24:39 69° 244° (WSW) 914 3.7 -7.9°
Drops below altitude 10° 03:30:18 10° 162° (SSE) 2,470 6.0 -7.2°
Sets 03:32:44 0° 160° (SSE) 3,399 6.7 -6.9°
